Sault Ste Marie, MI

5:42 PM EDT on July 24, 2017 (GMT -0400)
Sault Ste Marie Municipal / Sanderson Field

Weather History for KANJ - March, 2012

Change the Weather History Date:

Saturday, March 31, 2012

  Actual Average Record
Temperature  
Mean Temperature 35 °F 33 °F  
Max Temperature 42 °F 41 °F 63 °F (1999)
Min Temperature 27 °F 24 °F -6 °F (1923)
Degree Days  
Heating Degree Days 30 32  
Month to date heating degree days 843 1200  
Since 1 July heating degree days 6001 7326  
Cooling Degree Days 0 0  
Month to date cooling degree days 2 0  
Year to date cooling degree days 2 0  
Moisture  
Dew Point 24 °F    
Average Humidity 68    
Maximum Humidity 85    
Minimum Humidity 50    
Precipitation  
Precipitation T in 0.07 in 1.08 in (1891)
Month to date precipitation 2.50 1.95  
Year to date precipitation 6.45 5.48  
Snow  
Snow T in 0.30 in 6.00 in (1891)
Month to date snowfall 9.7 13.4  
Since 1 July snowfall 80.3 113.6  
Snow Depth T in    
Sea Level Pressure  
Sea Level Pressure 30.00 in    
Wind  
Wind Speed 4 mph (SE)    
Max Wind Speed 13 mph    
Max Gust Speed 16 mph    
Visibility 10 miles    
Events      
T = Trace of Precipitation, MM = Missing Value Source: NWS Daily Summary

Daily Weather History Graph

Daily Weather History Graph

Search for Another Location

Airport or City:

Trip Planner

Search our weather history database for the weather conditions in past years. The results will help you decide how hot, cold, wet, or windy it might be!

Date:

Astronomy

Mar. 31, 2012 Rise Set
Actual Time 7:17 AM EDT 8:05 PM EDT
Civil Twilight 6:47 AM EDT 8:36 PM EDT
Nautical Twilight 6:11 AM EDT 9:12 PM EDT
Astronomical Twilight 5:33 AM EDT 9:50 PM EDT
Moon 1:10 PM EDT (3/31) 3:36 AM EDT (3/31)
Length of Visible Light 13h 48m
Length of Day
12h 47m
First Quarter, 59% of the Moon is Illuminated
Mar 31
First Quarter
Apr 6
Full
Apr 13
Last Quarter
Apr 21
New
Apr 29
First Quarter

Hourly Weather History & Observations

Time (EDT) Temp. Windchill Dew Point Humidity Pressure Visibility Wind Dir Wind Speed Gust Speed Precip Events Conditions
12:55 AM 28.9 °F - 23.0 °F 78% 30.05 in 10.0 mi Calm Calm - N/A   Mostly Cloudy
1:55 AM 28.0 °F - 23.0 °F 81% 30.05 in 10.0 mi Calm Calm - N/A   Scattered Clouds
2:55 AM 27.0 °F 23.0 °F 23.0 °F 85% 30.04 in 10.0 mi East 3.5 mph - N/A   Mostly Cloudy
3:55 AM 28.0 °F - 24.1 °F 85% 30.06 in 10.0 mi Calm Calm - N/A   Overcast
4:55 AM 28.9 °F - 24.1 °F 82% 30.07 in 10.0 mi Calm Calm - N/A   Overcast
5:55 AM 28.9 °F 25.2 °F 24.1 °F 82% 30.06 in 10.0 mi East 3.5 mph - N/A   Overcast
6:55 AM 28.9 °F - 24.1 °F 82% 30.08 in 10.0 mi Calm Calm - N/A   Overcast
7:55 AM 30.0 °F - 24.1 °F 79% 30.08 in 10.0 mi Calm Calm - N/A   Overcast
8:55 AM 30.0 °F 26.5 °F 23.0 °F 75% 30.09 in 10.0 mi ENE 3.5 mph - N/A   Overcast
9:55 AM 32.0 °F 28.7 °F 23.0 °F 69% 30.09 in 10.0 mi East 3.5 mph - N/A   Overcast
10:55 AM 32.0 °F 27.5 °F 23.0 °F 69% 30.08 in 10.0 mi Variable 4.6 mph - N/A   Overcast
11:55 AM 34.0 °F 29.8 °F 24.1 °F 67% 30.05 in 10.0 mi SE 4.6 mph - N/A   Overcast
12:55 PM 36.0 °F - 24.1 °F 62% 30.02 in 10.0 mi North - - N/A   Overcast
1:55 PM 39.0 °F 34.0 °F 25.0 °F 57% 29.99 in 10.0 mi ESE 6.9 mph 16.1 mph N/A   Clear
2:55 PM 39.0 °F 35.7 °F 25.0 °F 57% 30.00 in 10.0 mi ESE 4.6 mph - N/A   Overcast
3:55 PM 41.0 °F 38.0 °F 25.0 °F 53% 29.96 in 10.0 mi Variable 4.6 mph - N/A   Overcast
4:55 PM 41.0 °F 38.0 °F 26.1 °F 55% 29.96 in 10.0 mi South 4.6 mph - N/A   Overcast
5:55 PM 41.0 °F 35.2 °F 25.0 °F 53% 29.94 in 10.0 mi South 9.2 mph - N/A   Overcast
6:55 PM 39.9 °F 34.5 °F 23.0 °F 51% 29.93 in 10.0 mi SSE 8.1 mph - N/A   Overcast
7:55 PM 37.9 °F 32.1 °F 23.0 °F 55% 29.91 in 10.0 mi SSE 8.1 mph - N/A   Overcast
8:55 PM 37.0 °F 31.0 °F 23.0 °F 57% 29.88 in 10.0 mi SE 8.1 mph - N/A   Overcast
9:55 PM 36.0 °F 29.6 °F 19.0 °F 50% 29.86 in 10.0 mi SSE 8.1 mph - N/A   Overcast
10:55 PM 35.1 °F 31.0 °F 21.0 °F 57% 29.87 in 10.0 mi SE 4.6 mph - 0.00 in   Overcast
11:55 PM 33.1 °F 26.9 °F 26.1 °F 75% 29.86 in 9.0 mi East 6.9 mph - 0.00 in   Overcast